DELTA 1 DEB, 3416

Orbit data source: Space-Track

DELTA 1 DEB, 3416 is space debris in SSO originally from a launch on Fri, 16 Aug 1968 UTC launched from the Air Force Western Test Range (AFWTR). Debris objects in space refer to the collection of defunct objects orbiting the Earth. Examples of debris include non-operational satellites, rocket bodies, and fragments generated from explosions, collisions, or faulty payload assembly.

Loading next visibility...
Identifier
3416, 1968-069C
Orbit
SSO
Country
Flag of USUS
Related business
Manufacturer
Unknown
Mission
Spacecraft
Bus & Motor
Unknown
Mass
Unknown
Launch date (UTC)
1968-08-16 (57 years ago)
Launch vehicle
Unknown
Launch site
Air Force Western Test Range (AFWTR)
Object type
Payload
Rocket body
Debris
Shape & HBR
Unknown shape, 0.1 m
Radar Cross Section
Small (<0.1 m²)

Expand to show TLE details & history
Last TLE update: 1 week ago

TLE from 1 week ago
0 DELTA 1 DEB
1  3416U 68069C   25297.30396933 -.00000012  00000-0  17923-3 0  9993
2  3416 101.6937  63.7314 0118720 257.8093 129.0421 12.67144775644399
Epoch: 2025-10-24T07:17Z
TLE epoch observation values (Epoch: 2025-10-24T07:17:42.950Z)
Latitude
27.3086°
Longitude
-84.7529°
Altitude
1,455.439 km
Speed
7.11 km/s
True Right ascension
03h 50m 30s
True Declination
27° 10' 52"
Sunlit
Object was in full shadow at epoch
Visualization orbit readout
Latitude
Unknown
Longitude
Unknown
Altitude
Unknown
Speed
Unknown
Apparent Right ascension
Unknown
Apparent Declination
Unknown
Sunlit
N/A
Visualization observer readout
Local Sidereal Time
05:02:09
Azimuth
Unknown
Elevation
Unknown
Doppler factor
Unknown
Orbital elements
Apogee altitude
1,483.35 km
Perigee altitude
1,298.877 km
Semi-major axis
7,769.25 km
Eccentricity
0.01187
Inclination
101.6937°
RAAN
63.7314°
Arg. of periapsis
257.8093°
True anomaly
130.08888°
Mean anomaly
129.0421°
Eccentric anomaly
129.56647°
Mean motion
3.16938 °/min
Orbital period
113.59 mins
BSTAR
0.00017923
Loading maneuver chart data...
Computing Atmospheric mass density...
Loading historical data...
Loading historical data...
Loading historical data...
Loading historical data...
Loading historical data...
Loading historical data...
Loading historical data...

Documentation

Showing up to 5 results
|